This is the latest recevied weather packets stored in our database for station/object F4FEB-13. If no packets are shown the sender has not sent any weather packets the latest 1 day(s).
| Time | Temp. | Humidity | Pressure | Rain* | Wind** | Luminosity | Snow |
|---|---|---|---|---|---|---|---|
| 1778012057 | 11.11° C | 84% | 1008.8 hPa | 0 mm | 3.13 m/s, 275° | - | - |
| 1778011757 | 10.56° C | 86% | 1008.8 hPa | 0 mm | 0.89 m/s, 296° | - | - |
| 1778011457 | 10.56° C | 87% | 1008.8 hPa | 0 mm | 0 m/s | - | - |
| 1778011161 | 10.56° C | 86% | 1008.7 hPa | 0 mm | 0 m/s | - | - |
| 1778011157 | 10.56° C | 86% | 1008.7 hPa | 0 mm | 0 m/s | - | - |
| 1778010857 | 10.56° C | 86% | 1008.7 hPa | 0 mm | 0.45 m/s, 251° | - | - |
| 1778010557 | 10.56° C | 86% | 1008.6 hPa | 0 mm | 0.45 m/s, 244° | - | - |
| 1778010262 | 11.11° C | 86% | 1008.5 hPa | 0 mm | 1.34 m/s, 167° | - | - |
| 1778010257 | 11.11° C | 86% | 1008.5 hPa | 0 mm | 1.34 m/s, 167° | - | - |
| 1778009957 | 11.11° C | 86% | 1008.4 hPa | 0 mm | 1.79 m/s, 203° | - | - |
| 1778009657 | 11.11° C | 85% | 1008.4 hPa | 0 mm | 1.34 m/s, 198° | - | - |
| 1778009362 | 11.11° C | 84% | 1008.4 hPa | 0 mm | 0.89 m/s, 189° | - | - |
| 1778009357 | 11.11° C | 84% | 1008.4 hPa | 0 mm | 0.89 m/s, 189° | - | - |
| 1778009057 | 11.67° C | 83% | 1008.4 hPa | 0 mm | 1.34 m/s, 220° | - | - |
| 1778008757 | 11.67° C | 83% | 1008.5 hPa | 0 mm | 1.34 m/s, 168° | - | - |
| 1778008457 | 11.67° C | 83% | 1008.5 hPa | 0 mm | 4.92 m/s, 209° | - | - |
| 1778008157 | 11.67° C | 83% | 1008.5 hPa | 0 mm | 1.34 m/s, 217° | - | - |
| 1778007857 | 11.67° C | 82% | 1008.4 hPa | 0 mm | 1.34 m/s, 254° | - | - |
| 1778007560 | 11.67° C | 82% | 1008.4 hPa | 0 mm | 3.13 m/s, 217° | - | - |
| 1778007557 | 11.67° C | 82% | 1008.4 hPa | 0 mm | 3.13 m/s, 217° | - | - |
| 1778007257 | 11.67° C | 82% | 1008.4 hPa | 0 mm | 0.89 m/s, 140° | - | - |
| 1778006957 | 11.67° C | 83% | 1008.5 hPa | 0 mm | 1.34 m/s, 233° | - | - |
| 1778006657 | 11.67° C | 84% | 1008.4 hPa | 0 mm | 0.89 m/s, 275° | - | - |
| 1778006357 | 11.67° C | 84% | 1008.5 hPa | 0 mm | 2.24 m/s, 257° | - | - |
| 1778006057 | 11.67° C | 85% | 1008.4 hPa | 0 mm | 2.24 m/s, 257° | - | - |
* Rain latest hour (hover to see other rain measurements)
** Current wind speed in m/s (hover to see current wind gust speed)